| time (UTC) | temp C | wind direction | speed KPH | gust KPH | rain 1hr cm | rain 24hr cm | rain mn cm | humidity % | barometer mb |
| 20260906033211 | 16 | 180 | 0.0 | 0.0 | 0.00 | 0.00 | 0.00 | 78 | 1026.6 |
| 20260906032212 | 16 | 270 | 0.0 | 1.6 | 0.00 | 0.00 | 0.00 | 77 | 1026.5 |
| 20260906031212 | 17 | 314 | 4.8 | 6.4 | 0.00 | 0.00 | 0.00 | 76 | 1026.3 |
| 20260906030211 | 17 | 305 | 3.2 | 6.4 | 0.00 | 0.00 | 0.00 | 77 | 1025.9 |
| 20260906030111 | 17 | 319 | 8.0 | 14.5 | 0.00 | 0.00 | 0.00 | 77 | 1026.1 |
| 20260906025112 | 17 | 360 | 0.0 | 0.0 | 0.00 | 0.00 | 0.00 | 77 | 1026.2 |
| 20260906024210 | 17 | 193 | 0.0 | 6.4 | 0.00 | 0.00 | 0.00 | 74 | 1026.1 |
| 20260906023215 | 18 | 180 | 0.0 | 0.0 | 0.00 | 0.00 | 0.00 | 73 | 1026.0 |
| 20260906022210 | 19 | 270 | 0.0 | 0.0 | 0.00 | 0.00 | 0.00 | 73 | 1025.9 |
| 20260906021211 | 20 | 270 | 1.6 | 1.6 | 0.00 | 0.00 | 0.00 | 69 | 1025.9 |
| 20260906020209 | 19 | 270 | 0.0 | 1.6 | 0.00 | 0.00 | 0.00 | 71 | 1025.8 |
| 20260906015211 | 19 | 270 | 4.8 | 6.4 | 0.00 | 0.00 | 0.00 | 68 | 1025.8 |
| 20260906014311 | 23 | 274 | 6.4 | 6.4 | 0.00 | 0.00 | 0.00 | 50 | 1025.8 |
| 20260906013312 | 23 | 337 | 0.0 | 0.0 | 0.00 | 0.00 | 0.00 | 48 | 1026.0 |
| 20260906012314 | 23 | 337 | 0.0 | 0.0 | 0.00 | 0.00 | 0.00 | 49 | 1026.0 |
| 20260906011411 | 23 | 337 | 0.0 | 0.0 | 0.00 | 0.00 | 0.00 | 50 | 1026.0 |
| 20260906010412 | 23 | 270 | 0.0 | 0.0 | 0.00 | 0.00 | 0.00 | 53 | 1025.9 |
| 20260906005412 | 22 | 270 | 0.0 | 0.0 | 0.00 | 0.00 | 0.00 | 56 | 1026.0 |
| 20260906004509 | 21 | 270 | 1.6 | 1.6 | 0.00 | 0.00 | 0.00 | 60 | 1026.2 |
| 20260906003412 | 21 | 270 | 3.2 | 3.2 | 0.00 | 0.00 | 0.00 | 61 | 1026.4 |
| 20260906001510 | 20 | 270 | 4.8 | 8.0 | 0.00 | 0.00 | 0.00 | 64 | 1026.1 |
| 20260906000511 | 19 | 270 | 3.2 | 6.4 | 0.00 | 0.00 | 0.00 | 64 | 1026.2 |
| 20260905235610 | 20 | 249 | 9.7 | 11.3 | 0.00 | 0.00 | 0.00 | 65 | 1026.3 |
| 20260905234612 | 20 | 225 | 4.8 | 6.4 | 0.00 | 0.00 | 0.00 | 64 | 1026.4 |
| 20260905233612 | 19 | 247 | 6.4 | 8.0 | 0.00 | 0.00 | 0.00 | 68 | 1026.3 |
| 20260905231709 | 20 | 225 | 3.2 | 4.8 | 0.00 | 0.00 | 0.00 | 65 | 1026.4 |
| 20260905230711 | 20 | 218 | 1.6 | 4.8 | 0.00 | 0.00 | 0.00 | 66 | 1026.4 |
| 20260905225711 | 20 | 225 | 0.0 | 0.0 | 0.00 | 0.00 | 0.00 | 67 | 1026.3 |
| 20260905223813 | 19 | 247 | 1.6 | 3.2 | 0.00 | 0.00 | 0.00 | 71 | 1026.5 |
| 20260905222811 | 18 | 202 | 0.0 | 0.0 | 0.00 | 0.00 | 0.00 | 69 | 1026.4 |
| 20260905221812 | 19 | 225 | 4.8 | 6.4 | 0.00 | 0.00 | 0.00 | 66 | 1026.6 |
| 20260905220812 | 19 | 202 | 0.0 | 4.8 | 0.00 | 0.00 | 0.00 | 64 | 1026.4 |
| 20260905215912 | 19 | 225 | 3.2 | 4.8 | 0.00 | 0.00 | 0.00 | 68 | 1026.4 |
| 20260905215011 | 18 | 202 | 1.6 | 4.8 | 0.00 | 0.00 | 0.00 | 73 | 1026.5 |
| 20260905214011 | 18 | 225 | 4.8 | 4.8 | 0.00 | 0.00 | 0.00 | 74 | 1026.4 |
| 20260905213012 | 18 | 247 | 1.6 | 3.2 | 0.00 | 0.00 | 0.00 | 70 | 1026.6 |
| 20260905211011 | 19 | 225 | 3.2 | 3.2 | 0.00 | 0.00 | 0.00 | 63 | 1026.5 |
| 20260905210011 | 20 | 270 | 4.8 | 8.0 | 0.00 | 0.00 | 0.00 | 58 | 1026.5 |
| 20260905205012 | 20 | 270 | 3.2 | 6.4 | 0.00 | 0.00 | 0.00 | 56 | 1026.5 |
| 20260905204911 | 20 | 270 | 3.2 | 4.8 | 0.00 | 0.00 | 0.00 | 56 | 1026.6 |
| 20260905203912 | 20 | 202 | 0.0 | 0.0 | 0.00 | 0.00 | 0.00 | 57 | 1026.7 |
| 20260905203011 | 20 | 48 | 0.0 | 0.0 | 0.00 | 0.00 | 0.00 | 58 | 1026.7 |
| 20260905202109 | 20 | 44 | 14.5 | 17.7 | 0.00 | 0.00 | 0.00 | 60 | 1026.5 |
| 20260905201112 | 20 | 31 | 12.9 | 20.9 | 0.00 | 0.00 | 0.00 | 59 | 1026.5 |
| 20260905200111 | 19 | 30 | 6.4 | 8.0 | 0.00 | 0.00 | 0.00 | 60 | 1026.8 |
| 20260905195113 | 18 | 45 | 4.8 | 6.4 | 0.00 | 0.00 | 0.00 | 64 | 1026.8 |
| 20260905194109 | 18 | 59 | 4.8 | 8.0 | 0.00 | 0.00 | 0.00 | 65 | 1027.0 |
| 20260905193112 | 19 | 8 | 4.8 | 9.7 | 0.00 | 0.00 | 0.00 | 66 | 1027.2 |
| 20260905191112 | 18 | 45 | 11.3 | 16.1 | 0.00 | 0.00 | 0.00 | 70 | 1027.3 |
| 20260905190111 | 17 | 45 | 11.3 | 14.5 | 0.00 | 0.00 | 0.00 | 73 | 1027.6 |
| 20260905185110 | 17 | 45 | 3.2 | 4.8 | 0.00 | 0.00 | 0.00 | 73 | 1027.7 |
| 20260905184111 | 17 | 45 | 11.3 | 14.5 | 0.00 | 0.00 | 0.00 | 74 | 1027.8 |
| 20260905182212 | 16 | 22 | 4.8 | 6.4 | 0.00 | 0.00 | 0.00 | 77 | 1028.1 |
| 20260905181211 | 16 | 45 | 9.7 | 11.3 | 0.00 | 0.00 | 0.00 | 77 | 1028.1 |
| 20260905174309 | 15 | 45 | 9.7 | 11.3 | 0.00 | 0.00 | 0.00 | 82 | 1028.3 |
| 20260905173311 | 15 | 45 | 8.0 | 11.3 | 0.00 | 0.00 | 0.00 | 82 | 1028.4 |
| 20260905172312 | 15 | 45 | 11.3 | 12.9 | 0.00 | 0.00 | 0.00 | 82 | 1028.4 |
| 20260905171311 | 15 | 24 | 6.4 | 11.3 | 0.00 | 0.00 | 0.00 | 84 | 1028.4 |
| 20260905170311 | 15 | 45 | 6.4 | 8.0 | 0.00 | 0.00 | 0.00 | 86 | 1028.6 |
| 20260905165409 | 15 | 22 | 4.8 | 6.4 | 0.00 | 0.00 | 0.00 | 88 | 1028.4 |
| 20260905164413 | 15 | 45 | 1.6 | 3.2 | 0.00 | 0.00 | 0.00 | 90 | 1028.7 |
| 20260905163411 | 14 | 67 | 0.0 | 1.6 | 0.00 | 0.00 | 0.00 | 92 | 1028.7 |
| 20260905163310 | 14 | 67 | 1.6 | 1.6 | 0.00 | 0.00 | 0.00 | 92 | 1028.6 |
| 20260905162313 | 14 | 67 | 1.6 | 1.6 | 0.00 | 0.00 | 0.00 | 91 | 1028.6 |
| 20260905155410 | 13 | 67 | 0.0 | 0.0 | 0.00 | 0.00 | 0.00 | 93 | 1028.6 |
| 20260905154410 | 13 | 67 | 0.0 | 0.0 | 0.00 | 0.00 | 0.00 | 92 | 1028.5 |
| 20260905153509 | 13 | 67 | 0.0 | 1.6 | 0.00 | 0.00 | 0.00 | 93 | 1028.7 |
| 20260905152513 | 12 | 67 | 0.0 | 1.6 | 0.00 | 0.00 | 0.00 | 94 | 1028.8 |
| 20260905151611 | 12 | 67 | 0.0 | 1.6 | 0.00 | 0.00 | 0.00 | 94 | 1028.7 |
| 20260905150611 | 12 | 67 | 0.0 | 1.6 | 0.00 | 0.00 | 0.00 | 94 | 1028.7 |
| 20260905145612 | 12 | 67 | 1.6 | 3.2 | 0.00 | 0.00 | 0.00 | 95 | 1028.7 |
| 20260905144610 | 12 | 67 | 1.6 | 3.2 | 0.00 | 0.00 | 0.00 | 95 | 1028.6 |
| 20260905143611 | 12 | 67 | 1.6 | 3.2 | 0.00 | 0.00 | 0.00 | 94 | 1028.6 |
| 20260905142709 | 12 | 67 | 0.0 | 0.0 | 0.00 | 0.00 | 0.00 | 95 | 1028.5 |
| 20260905141711 | 12 | 67 | 1.6 | 1.6 | 0.00 | 0.00 | 0.00 | 94 | 1028.6 |
| 20260905140711 | 12 | 67 | 1.6 | 3.2 | 0.00 | 0.00 | 0.00 | 94 | 1028.6 |
| 20260905135712 | 12 | 67 | 0.0 | 1.6 | 0.00 | 0.00 | 0.00 | 93 | 1028.4 |
| 20260905134712 | 12 | 67 | 0.0 | 0.0 | 0.00 | 0.00 | 0.00 | 93 | 1028.3 |
| 20260905132810 | 12 | 67 | 1.6 | 1.6 | 0.00 | 0.00 | 0.00 | 94 | 1028.1 |
| 20260905131813 | 12 | 67 | 3.2 | 3.2 | 0.00 | 0.00 | 0.00 | 94 | 1028.1 |
| 20260905130909 | 12 | 67 | 3.2 | 3.2 | 0.00 | 0.00 | 0.00 | 93 | 1028.1 |
| 20260905125912 | 12 | 67 | 3.2 | 3.2 | 0.00 | 0.00 | 0.00 | 93 | 1028.1 |
| 20260905123913 | 12 | 67 | 0.0 | 0.0 | 0.00 | 0.00 | 0.00 | 94 | 1028.0 |
| 20260905121910 | 12 | 67 | 0.0 | 0.0 | 0.00 | 0.00 | 0.00 | 93 | 1028.2 |
| 20260905121810 | 12 | 67 | 0.0 | 0.0 | 0.00 | 0.00 | 0.00 | 92 | 1028.1 |
| 20260905120812 | 12 | 67 | 0.0 | 1.6 | 0.00 | 0.00 | 0.00 | 92 | 1028.0 |
| 20260905115813 | 12 | 67 | 1.6 | 3.2 | 0.00 | 0.00 | 0.00 | 93 | 1028.0 |
| 20260905112811 | 12 | 67 | 1.6 | 3.2 | 0.00 | 0.00 | 0.00 | 94 | 1027.8 |
| 20260905110909 | 12 | 67 | 1.6 | 1.6 | 0.00 | 0.00 | 0.00 | 95 | 1027.8 |
| 20260905104909 | 12 | 67 | 0.0 | 0.0 | 0.00 | 0.00 | 0.00 | 94 | 1027.7 |
| 20260905103912 | 12 | 67 | 0.0 | 0.0 | 0.00 | 0.00 | 0.00 | 94 | 1027.8 |
| 20260905103814 | 12 | 67 | 0.0 | 0.0 | 0.00 | 0.00 | 0.00 | 95 | 1027.8 |
| 20260905102911 | 12 | 67 | 0.0 | 0.0 | 0.00 | 0.00 | 0.00 | 95 | 1027.6 |
| 20260905102009 | 12 | 67 | 0.0 | 0.0 | 0.00 | 0.00 | 0.00 | 93 | 1027.7 |
| 20260905101010 | 12 | 67 | 0.0 | 0.0 | 0.00 | 0.00 | 0.00 | 93 | 1027.8 |
| 20260905100911 | 12 | 67 | 0.0 | 0.0 | 0.00 | 0.00 | 0.00 | 94 | 1027.8 |
| 20260905095910 | 12 | 67 | 0.0 | 1.6 | 0.00 | 0.00 | 0.00 | 93 | 1027.7 |
| 20260905094910 | 12 | 360 | 0.0 | 0.0 | 0.00 | 0.00 | 0.00 | 93 | 1027.8 |
| 20260905093910 | 12 | 360 | 0.0 | 0.0 | 0.00 | 0.00 | 0.00 | 93 | 1027.8 |
| 20260905092911 | 12 | 360 | 0.0 | 0.0 | 0.00 | 0.00 | 0.00 | 94 | 1027.7 |
| 20260905091911 | 12 | 360 | 0.0 | 0.0 | 0.00 | 0.00 | 0.00 | 93 | 1027.8 |
| 20260905091810 | 12 | 360 | 0.0 | 0.0 | 0.00 | 0.00 | 0.00 | 93 | 1027.9 |
| 20260905085811 | 12 | 360 | 0.0 | 0.0 | 0.00 | 0.00 | 0.00 | 94 | 1027.7 |
| 20260905084812 | 12 | 360 | 0.0 | 0.0 | 0.00 | 0.00 | 0.00 | 94 | 1027.7 |
| 20260905083811 | 12 | 360 | 0.0 | 0.0 | 0.00 | 0.00 | 0.00 | 93 | 1027.6 |
| 20260905083709 | 12 | 360 | 0.0 | 0.0 | 0.00 | 0.00 | 0.00 | 93 | 1027.6 |
| 20260905082711 | 12 | 315 | 0.0 | 0.0 | 0.00 | 0.00 | 0.00 | 93 | 1027.6 |
| 20260905081714 | 12 | 315 | 0.0 | 0.0 | 0.00 | 0.00 | 0.00 | 93 | 1027.5 |
| 20260905080712 | 12 | 315 | 0.0 | 0.0 | 0.00 | 0.00 | 0.00 | 94 | 1027.5 |
| 20260905075709 | 12 | 315 | 0.0 | 3.2 | 0.00 | 0.00 | 0.00 | 93 | 1027.5 |
| 20260905074710 | 12 | 315 | 0.0 | 0.0 | 0.00 | 0.00 | 0.00 | 93 | 1027.5 |
| 20260905072710 | 12 | 315 | 0.0 | 0.0 | 0.00 | 0.00 | 0.00 | 91 | 1027.3 |
| 20260905071710 | 13 | 315 | 0.0 | 0.0 | 0.00 | 0.00 | 0.00 | 92 | 1027.3 |
| 20260905070809 | 13 | 315 | 0.0 | 1.6 | 0.00 | 0.00 | 0.00 | 91 | 1027.2 |
| 20260905065822 | 13 | 315 | 0.0 | 1.6 | 0.00 | 0.00 | 0.00 | 91 | 1027.1 |
| 20260905063819 | 13 | 135 | 1.6 | 3.2 | 0.00 | 0.00 | 0.00 | 93 | 1027.0 |
| 20260905062820 | 13 | 143 | 4.8 | 4.8 | 0.00 | 0.00 | 0.00 | 93 | 1027.0 |
| 20260905060820 | 12 | 157 | 1.6 | 1.6 | 0.00 | 0.00 | 0.00 | 92 | 1026.9 |
| 20260905055919 | 13 | 157 | 0.0 | 0.0 | 0.00 | 0.00 | 0.00 | 93 | 1026.9 |
| 20260905055018 | 13 | 157 | 1.6 | 3.2 | 0.00 | 0.00 | 0.00 | 93 | 1026.8 |
| 20260905054020 | 13 | 157 | 4.8 | 4.8 | 0.00 | 0.00 | 0.00 | 91 | 1026.8 |
| 20260905053118 | 13 | 157 | 0.0 | 1.6 | 0.00 | 0.00 | 0.00 | 91 | 1026.7 |
| 20260905052119 | 13 | 157 | 0.0 | 0.0 | 0.00 | 0.00 | 0.00 | 90 | 1026.6 |
| 20260905050119 | 13 | 180 | 0.0 | 0.0 | 0.00 | 0.00 | 0.00 | 90 | 1026.7 |
| 20260905045119 | 13 | 180 | 0.0 | 1.6 | 0.00 | 0.00 | 0.00 | 91 | 1026.7 |
| 20260905044122 | 14 | 225 | 0.0 | 0.0 | 0.00 | 0.00 | 0.00 | 90 | 1026.6 |
| 20260905042220 | 14 | 270 | 0.0 | 1.6 | 0.00 | 0.00 | 0.00 | 88 | 1026.4 |
| 20260905041219 | 14 | 292 | 3.2 | 6.4 | 0.00 | 0.00 | 0.00 | 87 | 1026.2 |
| 20260905040219 | 14 | 225 | 3.2 | 3.2 | 0.00 | 0.00 | 0.00 | 87 | 1026.1 |
| 20260905035220 | 15 | 270 | 0.0 | 0.0 | 0.00 | 0.00 | 0.00 | 85 | 1026.2 |